IO, 07, 201811102030,  10, DVTS,         CI,  , 1350N,  8930E,      , 2,  45, 2,     ,  ,     ,    ,     ,     ,     ,     ,     ,  ,  ,  ,  ,  ,    ,    , B,  KNES,  MT,   IM, 3, 3030 /////,      ,   ,   MET8, LLCC, T, DT=X.X BO CCC  MET=2.5 PT=3.0 FTBO PT
IO, 07, 201811110230,  10, DVTS,         CI,  , 1330N,  8890E,      , 3,  45, 2,     ,  ,     ,    ,     ,     ,     ,     ,     ,  ,  ,  ,  ,  ,    ,    , B,  KNES,  MT,  VIM, 5, 3030 /////,      ,   , HMWRI8, LLCC, T, DT=3.0 BO SHR  MET=2.5 PT=3.0 FTBO PT
IO, 07, 201811110830,  10, DVTS,         CI,  , 1350N,  8810E,      , 2,  45, 2,     ,  ,     ,    ,     ,     ,     ,     ,     ,  ,  ,  ,  ,  ,    ,    , B,  KNES,  VK,  VIM, 3, 3030 /////,      ,   ,   MET8, LLCC, T, DT=3.0 BO CBND MET=3.0 PT=3.0 FTBO DT
IO, 07, 201811111430,  10, DVTS,         CI,  , 1280N,  8720E,      , 2,  45, 2,     ,  ,     ,    ,     ,     ,     ,     ,     ,  ,  ,  ,  ,  ,    ,    , B,  KNES,  PL,   IM, 3, 2530 /////,      ,   ,   MET8, LLCC, T, DT=2.5 BO CBND MET=2.5 PT=2.5 FTBO MET
IO, 07, 201811112030,  10, DVTS,         CI,  , 1230N,  8730E,      , 2,  45, 2,     ,  ,     ,    ,     ,     ,     ,     ,     ,  ,  ,  ,  ,  ,    ,    , B,  KNES,  KH,   IM, 3, 3030 /////,      ,   ,   MET8, LLCC, T, DT=3.5 BO CBND MET=2.5 PT=3.0 FTBO MET
IO, 07, 201811120230,  10, DVTS,         CI,  , 1220N,  8770E,      , 2,  45, 2,     ,  ,     ,    ,     ,     ,     ,     ,     ,  ,  ,  ,  ,  ,    ,    , B,  KNES,  KH,  VIM, 3, 2530 /////,      ,   ,   MET8, LLCC, T, DT=2.5 BO CBND MET=2.5 PT=2.5 FTBO MET
IO, 07, 201811120830,  10, DVTS,         CI,  , 1260N,  8760E,      , 2,  35, 2,     ,  ,     ,    ,     ,     ,     ,     ,     ,  ,  ,  ,  ,  ,    ,    , B,  KNES,  JF,  VIM, 3, 2525 /////,      ,   ,   MET8, LLCC, T, DT=2.5 BO CBND MET=2.5 PT=2.5 FTBO DT
IO, 07, 201811121430,  10, DVTS,         CI,  , 1290N,  8780E,      , 2,  35, 2,     ,  ,     ,    ,     ,     ,     ,     ,     ,  ,  ,  ,  ,  ,    ,    , B,  KNES,  VK,   IM, 3, 2025 /////,      ,   ,   MET8, LLCC, T, DT=2.5 BO SHR  MET=2.0 PT=2.0 FTBO MET
IO, 07, 201811122030,  10, DVTS,         CI,  , 1300N,  8720E,      , 2,  35, 2,     ,  ,     ,    ,     ,     ,     ,     ,     ,  ,  ,  ,  ,  ,    ,    , B,  KNES,  BZ,   IM, 3, 2525 /////,      ,   ,   MET8, LLCC, T, DT=3.0 BO SHR  MET=2.5 PT=2.5 FTBO MET
IO, 07, 201811130230,  10, DVTS,         CI,  , 1320N,  8610E,      , 2,  35, 2,     ,  ,     ,    ,     ,     ,     ,     ,     ,  ,  ,  ,  ,  ,    ,    , B,  KNES,  JF,   IM, 3, 2025 /////,      ,   ,   MET8, LLCC, T, DT=2.0 BO CBND MET=2.0 PT=2.5 FTBO DT
IO, 07, 201811130830,  10, DVTS,         CI,  , 1380N,  8640E,      , 2,  35, 2,     ,  ,     ,    ,     ,     ,     ,     ,     ,  ,  ,  ,  ,  ,    ,    , B,  KNES,  JF,  VIM, 3, 2025 /////,      ,   ,   MET8, LLCC, T, DT=2.0 BO CBND MET=2.0 PT=2.0 FTBO DT
IO, 07, 201811131316,  30, GPMI,          C,  , 1260N,  8590E,      , 2,    ,  ,     ,  ,     ,    ,     ,     ,     ,     ,     ,  ,  ,  ,  ,  ,    ,    , B,  KNES,  JV,  ,    ,       ,   ,     ,     ,     ,    ,   GPMI,    ,     ,     ,     ,     ,     ,     ,     ,     ,     ,  ,  ,  ,  ,  ,  ,  ,  , 2, 89GHz
IO, 07, 201811131430,  10, DVTS,         CI,  , 1260N,  8590E,      , 2,  30, 2,     ,  ,     ,    ,     ,     ,     ,     ,     ,  ,  ,  ,  ,  ,    ,    , B,  KNES,  JV,   IM, 3, 2020 /////,      ,   , HMWRI8, LLCC, T, DT=2.5 BO CBND MET=2.0 PT=2.0 FTBO MET
IO, 07, 201811132030,  10, DVTS,         CI,  , 1320N,  8730E,      , 3,  35, 2,     ,  ,     ,    ,     ,     ,     ,     ,     ,  ,  ,  ,  ,  ,    ,    , B,  KNES,  JV,   IM, 5, 2525 /////,      ,   ,   MET8, LLCC, T, DT=2.5 BO CBND MET=2.5 PT=2.5 FTBO MET
IO, 07, 201811140230,  10, DVTS,         CI,  , 1310N,  8550E,      , 2,  45, 2,     ,  ,     ,    ,     ,     ,     ,     ,     ,  ,  ,  ,  ,  ,    ,    , B,  KNES,  JF,  VIM, 3, 3030 /////,      ,   ,   MET8, LLCC, T, DT=3.0 BO CBND MET=3.0 PT=3.0 FTBO DT
IO, 07, 201811140830,  10, DVTS,         CI,  , 1260N,  8450E,      , 2,  45, 2,     ,  ,     ,    ,     ,     ,     ,     ,     ,  ,  ,  ,  ,  ,    ,    , B,  KNES,  JF,  VIM, 3, 3030 /////,      ,   ,   MET8, LLCC, T, DT=3.0 BO CBND MET=3.0 PT=3.0 FTBO DT
IO, 07, 201811141430,  10, DVTS,         CI,  , 1230N,  8440E,      , 2,  45, 2,     ,  ,     ,    ,     ,     ,     ,     ,     ,  ,  ,  ,  ,  ,    ,    , B,  KNES,  PL,   IM, 3, 3030 /////,      ,   ,   MET8, LLCC, T, DT=3.0 BO CBND MET=3.0 PT=3.0 FTBO MET
IO, 07, 201811142030,  10, DVTS,         CI,  , 1150N,  8390E,      , 2,  45, 2,     ,  ,     ,    ,     ,     ,     ,     ,     ,  ,  ,  ,  ,  ,    ,    , B,  KNES,  VK,   IM, 3, 3030 /////,      ,   ,   MET8, LLCC, T, DT=3.0 BO SHR  MET=3.0 PT=3.0 FTBO DT
IO, 07, 201811150230,  10, DVTS,         CI,  , 1160N,  8270E,      , 2,  65, 2,     ,  ,     ,    ,     ,     ,     ,     ,     ,  ,  ,  ,  ,  ,    ,    , B,  KNES,  VK,  VIM, 3, 4040 /////,      ,   ,   MET8, LLCC, T, DT=4.5 BO EMB  MET=4.0 PT=4.0 FTBO MET
IO, 07, 201811150813,  30, AMSR,          C,  , 1120N,  8180E,      , 1,    ,  ,     ,  ,     ,    ,     ,     ,     ,     ,     ,  ,  ,  ,  ,  ,    ,    , B,  KNES,  BZ,  ,    ,       ,   ,     ,     ,     ,    ,   AMSR,    ,     ,     ,     ,     ,     ,     ,     ,     ,     ,  ,  ,  ,  ,  ,  ,  ,  , 1, 89GHz
IO, 07, 201811150830,  10, DVTS,         CI,  , 1110N,  8160E,      , 2,  65, 2,     ,  ,     ,    ,     ,     ,     ,     ,     ,  ,  ,  ,  ,  ,    ,    , B,  KNES,  BZ,  VIM, 3, 3540 /////,      ,   ,   MET8, LLCC, T, DT=3.5 BO CBND MET=4.0 PT=3.5 FTBO DT
IO, 07, 201811151430,  10, DVTS,         CI,  , 1060N,  8110E,      , 2,  65, 2,     ,  ,     ,    ,     ,     ,     ,     ,     ,  ,  ,  ,  ,  ,    ,    , B,  KNES,  JV,   IM, 3, 3540 /////,      ,   ,   MET8, LLCC, T, DT=3.5 BO CBND MET=4.0 PT=3.5 FTBO DT
IO, 07, 201811152030,  10, DVTS,         CI,  , 1050N,  8000E,      , 2,  65, 2,     ,  ,     ,    ,     ,     ,     ,     ,     ,  ,  ,  ,  ,  ,    ,    , B,  KNES,  PL,   IM, 3, 4040 /////,      ,   ,   MET8, LLCC, T, DT=4.0 BO EMB  MET=4.0 PT=3.5 FTBO DT
IO, 07, 201811152031,  10, DVTS,         CI,  , 1050N,  8000E,      , 2,  77, 2,     ,  ,     ,    ,     ,     ,     ,     ,     ,  ,  ,  ,  ,  ,    ,    , B,  KNES,  PL,   IM, 3, 4545 /////,      ,   ,   MET8, LLCC, T, COR DT=4.0 BO EMB  MET=4.0 PT=4.5 FTBO PT
IO, 07, 201811160230,  10, DVTS,          C,  , 1050N,  7890E,      , 2,   0, 2,     ,  ,     ,    ,     ,     ,     ,     ,     ,  ,  ,  ,  ,  ,    ,    , A,  KNES,  PL,  VIM, 3, 0000 /////,      ,   ,   MET8, LLCC, T, OVERLAND
IO, 07, 201811161430,  10, DVTS,         CI,  ,  980N,  7600E,      , 2,  35, 2,     ,  ,     ,    ,     ,     ,     ,     ,     ,  ,  ,  ,  ,  ,    ,    , A,  KNES,  VK,   IM, 3, 2525 /////,      ,   ,   MET8, LLCC, T, DT=2.5 BO CBND MET=2.5 PT=2.5 FTBO DT
IO, 07, 201811161606,  30, AMSU,          C,  ,  990N,  7520E,      , 2,    ,  ,     ,  ,     ,    ,     ,     ,     ,     ,     ,  ,  ,  ,  ,  ,    ,    , A,  KNES,  PL,  ,    ,       ,   ,     ,     ,     ,    ,   AMSU,    ,     ,     ,     ,     ,     ,     ,     ,     ,     ,  ,  ,  ,  ,  ,  ,  ,  , 2, 89GHz
IO, 07, 201811162030,  10, DVTS,         CI,  ,  990N,  7470E,      , 2,  45, 2,     ,  ,     ,    ,     ,     ,     ,     ,     ,  ,  ,  ,  ,  ,    ,    , A,  KNES,  PL,   IM, 3, 3030 /////,      ,   ,   MET8, LLCC, T, DT=3.0 BO CBND MET=4.0 PT=3.5 FTBO DT
IO, 07, 201811162344,  30, AMSU,          C,  ,  990N,  7470E,      , 2,    ,  ,     ,  ,     ,    ,     ,     ,     ,     ,     ,  ,  ,  ,  ,  ,    ,    , A,  KNES,  PL,  ,    ,       ,   ,     ,     ,     ,    ,   AMSU,    ,     ,     ,     ,     ,     ,     ,     ,     ,     ,  ,  ,  ,  ,  ,  ,  ,  , 2, 89GHz
IO, 07, 201811170215,  10, DVTS,         CI,  ,  990N,  7390E,      , 2,  45, 2,     ,  ,     ,    ,     ,     ,     ,     ,     ,  ,  ,  ,  ,  ,    ,    , A,  KNES,  PL,  VIM, 3, 3030 /////,      ,   ,   MET8, LLCC, T, DT=3.0 BO CBND MET=X.X PT=X.X FTBO DT
IO, 07, 201811170830,  10, DVTS,         CI,  , 1010N,  7210E,      , 2,  45, 2,     ,  ,     ,    ,     ,     ,     ,     ,     ,  ,  ,  ,  ,  ,    ,    , A,  KNES,  MT,  VIM, 3, 2530 /////,      ,   ,   MET8, LLCC, T, DT=2.5 BO CDO  MET=X.X PT=X.X FTBO DT
IO, 07, 201811171430,  10, DVTS,         CI,  , 1020N,  7080E,      , 2,  45, 2,     ,  ,     ,    ,     ,     ,     ,     ,     ,  ,  ,  ,  ,  ,    ,    , A,  KNES,  VK,   IM, 3, 2530 /////,      ,   ,   MET8, LLCC, T, DT=2.5 BO CBND MET=2.5 PT=2.5 FTBO DT
IO, 07, 201811172030,  10, DVTS,         CI,  , 1010N,  7060E,      , 3,  45, 2,     ,  ,     ,    ,     ,     ,     ,     ,     ,  ,  ,  ,  ,  ,    ,    , A,  KNES,  KH,   IM, 5, 3030 /////,      ,   ,   MET8, LLCC, T, DT=3.0 BO CBND MET=3.0 PT=3.0 FTBO MET
IO, 07, 201811180230,  10, DVTS,         CI,  , 1040N,  6960E,      , 3,  45, 2,     ,  ,     ,    ,     ,     ,     ,     ,     ,  ,  ,  ,  ,  ,    ,    , A,  KNES,  KH,  VIM, 5, 3030 /////,      ,   ,   MET8, LLCC, T, DT=3.0 BO CBND MET=3.0 PT=3.0 FTBO MET
IO, 07, 201811180830,  10, DVTS,         CI,  , 1100N,  6880E,      , 2,  45, 2,     ,  ,     ,    ,     ,     ,     ,     ,     ,  ,  ,  ,  ,  ,    ,    , A,  KNES,  MT,  VIM, 3, 2530 /////,      ,   ,   MET8, LLCC, T, DT=2.5 BO CBND MET=2.5 PT=2.5 FTBO DT
IO, 07, 201811181430,  10, DVTS,         CI,  , 1120N,  6820E,      , 2,  45, 2,     ,  ,     ,    ,     ,     ,     ,     ,     ,  ,  ,  ,  ,  ,    ,    , A,  KNES,  BZ,   IM, 3, 2530 /////,      ,   ,   MET8, LLCC, T, DT=2.5 BO CBND MET=2.5 PT=2.5 FTBO DT
IO, 07, 201811182030,  10, DVTS,         CI,  , 1060N,  6730E,      , 2,  35, 2,     ,  ,     ,    ,     ,     ,     ,     ,     ,  ,  ,  ,  ,  ,    ,    , A,  KNES,  JF,   IM, 3, 1525 /////,      ,   ,   MET8, LLCC, T, DT=1.5 BO SHR  MET=1.5 PT=1.5 FTBO DT
IO, 07, 201811190230,  10, DVTS,         CI,  , 1130N,  6630E,      , 2,  35, 2,     ,  ,     ,    ,     ,     ,     ,     ,     ,  ,  ,  ,  ,  ,    ,    , A,  KNES,  JF,  VIM, 3, 2025 /////,      ,   ,   MET8, LLCC, T, DT=1.5 BO SHR  MET=2.5 PT=2.0 FTBO PT
IO, 07, 201811190830,  10, DVTS,         CI,  , 1090N,  6490E,      , 2,  30, 2,     ,  ,     ,    ,     ,     ,     ,     ,     ,  ,  ,  ,  ,  ,    ,    , A,  KNES,  PL,  VIM, 3, 2020 /////,      ,   ,   MET8, LLCC, T, DT=1.0 BO SHR  MET=2.0 PT=2.0 FTBO MET
IO, 07, 201811191430,  10, DVTS,         CI,  , 1260N,  6580E,      , 3,  30, 2,     ,  ,     ,    ,     ,     ,     ,     ,     ,  ,  ,  ,  ,  ,    ,    , A,  KNES,  JK,   IM, 5, 1020 /////,      ,   ,   MET8, ULCC, T, DT=0.0 BO SHR  MET=1.0 PT=0.0 FTBO CON
IO, 07, 201811192030,  10, DVTS,          C,  , 1130N,  6260E,      , 2,  25, 2,     ,  ,     ,    ,     ,     ,     ,     ,     ,  ,  ,  ,  ,  ,    ,    , A,  KNES,  JF,   IM, 3, 0000 /////,      ,   ,   MET8, LLCC, T, DT=0.0 BO CBND MET=X.X PT=X.X FTBO DT
IO, 07, 201811200216,  30, SSMS,          C,  , 1100N,  6090E,      , 2,    ,  ,     ,  ,     ,    ,     ,     ,     ,     ,     ,  ,  ,  ,  ,  ,    ,    , A,  KNES,  PL,  ,    ,       ,   ,     ,     ,     ,    ,   SSMS,    ,     ,     ,     ,     ,     ,     ,     ,     ,     ,  ,  ,  ,  ,  ,  ,  ,  , 2, 91GHz
IO, 07, 201811200230,  10, DVTS,         CI,  , 1040N,  6140E,      , 2,  25, 2,     ,  ,     ,    ,     ,     ,     ,     ,     ,  ,  ,  ,  ,  ,    ,    , A,  KNES,  PL,  VIM, 3, 1010 /////,      ,   ,   MET8, LLCC, T, DT=2.0 BO CBND MET=2.0 PT=2.0 FTBO CON
IO, 07, 201811200525,  30, AMSU,          C,  ,  450S,  6240E,      , 2,    ,  ,     ,  ,     ,    ,     ,     ,     ,     ,     ,  ,  ,  ,  ,  ,    ,    , S,  KNES,  PL,  ,    ,       ,   ,     ,     ,     ,    ,   AMSU,    ,     ,     ,     ,     ,     ,     ,     ,     ,     ,  ,  ,  ,  ,  ,  ,  ,  , 2, 89GHz
IO, 07, 201811200830,  10, DVTS,         CI,  , 1090N,  6020E,      , 2,  25, 2,     ,  ,     ,    ,     ,     ,     ,     ,     ,  ,  ,  ,  ,  ,    ,    , A,  KNES,  PL,  VIM, 3, 1010 /////,      ,   ,   MET8, LLCC, T, DT=1.0 BO CBND MET=1.0 PT=1.0 FTBO MET
IO, 07, 201811200831,  10, DVTS,          C,  , 1090N,  6020E,      , 3,  25, 2,     ,  ,     ,    ,     ,     ,     ,     ,     ,  ,  ,  ,  ,  ,    ,    , A,  KNES,  MT,  VIM, 5, 0000 /////,      ,   ,   MET8, LLCC, T, COR DT=0.0 BO CBND MET=1.0 PT=0.0 FTBO DT
